FREGAT R/B, 40546

Orbit data source: Space-Track

FREGAT R/B, 40546 is space debris originally from a launch on Fri, 27 Mar 2015 UTC launched from the French Guiana (FRGUI). Debris objects in space refer to the collection of defunct objects orbiting the Earth. Examples of debris include non-operational satellites, rocket bodies, and fragments generated from explosions, collisions, or faulty payload assembly.

Loading next visibility...
Identifier
40546, 2015-017C
Orbit
Active
Country
Flag of CISCIS
Related business
Manufacturer
Lavochkin
Mission
Spacecraft
Bus & Motor
FREGAT, Unknown motor
Mass
1,050 kg wet, 1,050 kg dry
Launch date (UTC)
2015-03-27 (11 years ago)
Launch vehicle
Unknown
Launch site
French Guiana (FRGUI)
Object type
Payload
Rocket body
Debris
Shape & HBR
Irr, 1.6 m
Radar Cross Section
11.055 m², Medium (>0.1 m² and < 1m²)

Expand to show TLE details & history
Last TLE update: 3 days ago

TLE from 3 days ago
0 FREGAT R/B
1 40546U 15017C   26170.92793522 -.00000097  00000-0  00000-0 0  9995
2 40546  56.9800 345.5395 0017041 229.0469 130.8033  1.67685161 68797
Epoch: 2026-06-19T22:16Z
TLE epoch observation values (Epoch: 2026-06-19T22:16:13.603Z)
Latitude
0.00001°
Longitude
103.32377°
Altitude
23,583.078 km
Speed
3.645 km/s
True Right ascension
23h 02m 07s
True Declination
0° 00' 00"
Sunlit
Object was in daylight at epoch
Visualization orbit readout
Latitude
Unknown
Longitude
Unknown
Altitude
Unknown
Speed
Unknown
Apparent Right ascension
Unknown
Apparent Declination
Unknown
Sunlit
N/A
Visualization observer readout
Local Sidereal Time
21:37:00
Azimuth
Unknown
Elevation
Unknown
Doppler factor
Unknown
Orbital elements
Apogee altitude
23,600.414 km
Perigee altitude
23,498.415 km
Semi-major axis
29,927.552 km
Eccentricity
0.0017
Inclination
56.98°
RAAN
345.5395°
Arg. of periapsis
229.0469°
True anomaly
130.95091°
Mean anomaly
130.8033°
Eccentric anomaly
130.87713°
Mean motion
0.41921 °/min
Orbital period
858.75 mins
BSTAR
0
Loading maneuver chart data...
Computing Atmospheric mass density...
Loading historical data...
Loading historical data...
Loading historical data...
Loading historical data...
Loading historical data...
Loading historical data...
Loading historical data...
Other satellites on launch #17 in the year 2015 (2015-03-27 UTC)

Documentation

Showing up to 5 results
|